ISS (ZARYA)

Last updated on Fri Feb 06 2026 00:02:12 GMT+0000 (Coordinated Universal Time)

1 25544U 98067A 26036.50214262 .00012860 00000+0 24571-3 0 9997 2 25544 51.6316 231.4727 0011154 67.3664 292.8503 15.48414003551341
UTC large
Height (km)
Speed (km/s)
/
Latitude / Longitude
Inclination (degrees)
Orbital Period (minutes)
Azimuth
Elevation
Range (km)
Doppler Factor

Next 0 passes for location: London (51.5072 / 0.1276)

Sorry there are no passes over London.